Eagle, CO

1:00 AM MST on December 13, 2017 (GMT -0700)
Eagle County Regional

Weather History for KEGE - January, 2013

Change the Weather History Date:

Saturday, January 26, 2013

  Actual Average Record
Temperature  
Mean Temperature 36 °F -  
Max Temperature 42 °F 38 °F 55 °F (1982)
Min Temperature 30 °F 5 °F -20 °F (1962)
Degree Days  
Heating Degree Days 29    
Moisture  
Dew Point 33 °F    
Average Humidity 91    
Maximum Humidity 100    
Minimum Humidity 66    
Precipitation  
Precipitation 0.03 in - - ()
Sea Level Pressure  
Sea Level Pressure 30.01 in    
Wind  
Wind Speed 2 mph (East)    
Max Wind Speed 7 mph    
Max Gust Speed -    
Visibility 8 miles    
Events Rain , Snow    
Averages and records for this station are not official NWS values.
T = Trace of Precipitation, MM = Missing Value Source: NWS Daily Summary

Daily Weather History Graph

Daily Weather History Graph

Search for Another Location

Airport or City:

Trip Planner

Search our weather history database for the weather conditions in past years. The results will help you decide how hot, cold, wet, or windy it might be!

Date:

Astronomy

Jan. 26, 2013 Rise Set
Actual Time 7:20 AM MST 5:20 PM MST
Civil Twilight 6:51 AM MST 5:49 PM MST
Nautical Twilight 6:18 AM MST 6:22 PM MST
Astronomical Twilight 5:46 AM MST 6:54 PM MST
Moon 5:18 PM MST (1/26) 6:39 AM MST (1/26)
Length of Visible Light 10h 58m
Length of Day
10h 00m
Full, 100% of the Moon is Illuminated
Jan 26
Full
Jan 26
Full
Feb 3
Last Quarter
Feb 10
New
Feb 17
First Quarter

Hourly Weather History & Observations

Time (MST) Temp. Windchill Dew Point Humidity Pressure Visibility Wind Dir Wind Speed Gust Speed Precip Events Conditions
12:15 AM 35.6 °F 31.7 °F 33.8 °F 93% 30.16 in 10.0 mi East 4.6 mph - N/A   Overcast
12:35 AM 35.6 °F - 33.8 °F 93% 30.16 in 10.0 mi Calm Calm - N/A   Overcast
12:55 AM 33.8 °F - 33.8 °F 100% 30.15 in 10.0 mi Calm Calm - N/A   Overcast
1:35 AM 33.8 °F - 33.8 °F 100% 30.15 in 10.0 mi Calm Calm - N/A   Overcast
1:55 AM 33.8 °F 29.6 °F 33.8 °F 100% 30.15 in 10.0 mi East 4.6 mph - N/A   Overcast
2:35 AM 33.8 °F 28.6 °F 32.0 °F 93% 30.13 in 10.0 mi ESE 5.8 mph - N/A   Overcast
2:55 AM 33.8 °F 29.6 °F 33.8 °F 100% 30.13 in 10.0 mi ENE 4.6 mph - N/A   Overcast
3:15 AM 33.8 °F - 33.8 °F 100% 30.13 in 10.0 mi Calm Calm - N/A   Overcast
3:35 AM 33.8 °F - 32.0 °F 93% 30.13 in 10.0 mi Calm Calm - N/A   Overcast
3:55 AM 33.8 °F 29.6 °F 33.8 °F 100% 30.11 in 10.0 mi East 4.6 mph - N/A   Overcast
4:15 AM 33.8 °F 27.7 °F 33.8 °F 100% 30.11 in 10.0 mi East 6.9 mph - N/A   Overcast
4:35 AM 33.8 °F 28.6 °F 33.8 °F 100% 30.10 in 10.0 mi East 5.8 mph - N/A   Overcast
4:55 AM 33.8 °F 29.6 °F 32.0 °F 93% 30.10 in 10.0 mi East 4.6 mph - N/A   Overcast
5:15 AM 33.8 °F - 32.0 °F 93% 30.10 in 10.0 mi Calm Calm - N/A   Overcast
5:35 AM 33.8 °F - 33.8 °F 100% 30.10 in 10.0 mi Calm Calm - N/A   Overcast
5:55 AM 33.8 °F - 32.0 °F 93% 30.09 in 10.0 mi Calm Calm - N/A   Overcast
6:15 AM 33.8 °F - 32.0 °F 93% 30.09 in 10.0 mi Calm Calm - N/A   Overcast
6:35 AM 32.0 °F - 30.2 °F 93% 30.09 in 10.0 mi Calm Calm - N/A   Overcast
6:50 AM 32.0 °F - 30.2 °F 93% 30.09 in 10.0 mi Calm Calm - N/A   Mostly Cloudy
7:50 AM 30.2 °F 26.7 °F 28.4 °F 93% 30.08 in 10.0 mi ESE 3.5 mph - N/A   Mostly Cloudy
8:55 AM 32.0 °F - 30.2 °F 93% 30.07 in 10.0 mi Calm Calm - N/A   Mostly Cloudy
9:50 AM 35.6 °F - 33.8 °F 93% 30.08 in 10.0 mi Calm Calm - N/A   Overcast
10:50 AM 39.2 °F - 37.4 °F 93% 30.06 in 10.0 mi Calm Calm - N/A   Overcast
11:50 AM 39.2 °F - 35.6 °F 87% 29.99 in 10.0 mi Calm Calm - N/A   Mostly Cloudy
12:50 PM 39.2 °F - 33.8 °F 81% 29.94 in 10.0 mi Calm Calm - N/A   Overcast
1:50 PM 41.0 °F - 32.0 °F 70% 29.90 in 10.0 mi Calm Calm - N/A   Overcast
2:50 PM 42.8 °F - 32.0 °F 66% 29.87 in 10.0 mi Calm Calm - N/A   Overcast
3:50 PM 41.0 °F - 32.0 °F 70% 29.85 in 10.0 mi Calm Calm - N/A   Overcast
4:50 PM 42.8 °F - 32.0 °F 66% 29.83 in 10.0 mi Calm Calm - N/A   Overcast
5:52 PM 39.2 °F - 32.0 °F 75% 29.83 in 8.0 mi Calm Calm - N/A   Overcast
6:50 PM 37.4 °F - 33.8 °F 87% 29.83 in 6.0 mi Calm Calm - N/A Rain Light Rain
7:50 PM 35.6 °F - 33.8 °F 93% 29.82 in 5.0 mi Calm Calm - N/A Rain Light Rain
8:59 PM 35.6 °F - 33.8 °F 93% 29.81 in 3.0 mi Calm Calm - N/A Rain Light Rain
9:50 PM 33.8 °F - 32.0 °F 93% 29.80 in 2.0 mi Calm Calm - N/A Snow Light Snow
10:50 PM 33.8 °F - 32.0 °F 93% 29.80 in 2.0 mi Calm Calm - N/A Snow Light Snow
11:15 PM 33.8 °F - 32.0 °F 93% 29.80 in 2.0 mi Calm Calm - 0.01 in   Overcast
11:35 PM 33.8 °F - 32.0 °F 93% 29.80 in 2.0 mi Calm Calm - 0.02 in   Overcast
11:55 PM 33.8 °F - 32.0 °F 93% 29.80 in 1.2 mi Calm Calm - 0.03 in   Overcast